Current Version              Previous Version:    01  02  03  04  05  06  07  08  09  10  11  12  13  14  15  16  17  18  19  20  21  22  23  24  25  26  27  28  29  30  
   31  32  33  34  35  36  37  38  39  40  41  42  43  44  45  46  47  48  49  50  51  52  53  54  55  56  57  58  59  60  

[Printable]
004
ASUS44 KFWD 212203
RWRTX
NORTH TEXAS HOURLY WEATHER ROUNDUP
NATIONAL WEATHER SERVICE FORT WORTH TX
400 PM CST FRI NOV 21 2014

NOTE: "FAIR" INDICATES FEW OR NO CLOUDS BELOW 12,000 FEET WITH NO
SIGNIFICANT WEATHER AND/OR OBSTRUCTIONS TO VISIBILITY.

TXZ118-119-212300-
DALLAS/FORT WORTH METROPLEX

CITY           SKY/WX    TMP DP  RH WIND       PRES   REMARKS
DFW AIRPORT    PTSUNNY   67  61  81 SE13      30.03S
DALLAS LOVE    CLOUDY    68  61  78 SE13      30.04S
FTW MEACHAM    PTSUNNY   70  61  73 SE15      30.01F HAZE
DAL-EXECUTIVE  CLOUDY    68  62  81 SE7       30.04S
FTW-ALLIANCE   PTSUNNY   68  61  78 SE12      30.01F
FTW-SPINKS     PTSUNNY   70  61  73 SE8       30.04S FOG
ARLINGTON      CLOUDY    70  61  73 SE12      30.04R
MESQUITE       CLOUDY    66  61  82 SE9       30.06S
LANCASTER      CLOUDY    66  60  81 SE10      30.06R
$$

TXZ091>094-102>105-117-120-121-131>134-212300-
NORTH CENTRAL TEXAS

CITY           SKY/WX    TMP DP  RH WIND       PRES   REMARKS
SHRMAN/DENISON PTSUNNY   64  62  91 SE10      30.06R
GAINESVILLE    PTSUNNY   66  58  75 SE14      30.05S
BRIDGEPORT     MOSUNNY   71  59  65 S9        30.02S
DECATUR        PTSUNNY   67  58  72 SE10      30.02R
DENTON         CLOUDY    67  60  78 SE15      30.03S
MCKINNEY       CLOUDY    65  61  87 SE10      30.06S
GREENVILLE     CLOUDY    63  59  88 SE9       30.08R
ROCKWALL       CLOUDY    65  62  90 SE8       30.05S
TERRELL        CLOUDY    67  61  81 SE10      30.07S
WAXAHACHIE     CLOUDY    66  64  90 SE6       30.05S
CLEBURNE       PTSUNNY   72  63  73 SE14G21   30.03S
GRANBURY       MOSUNNY   72  61  67 E13       30.02R
$$

TXZ083>090-098>101-113>116-127>130-139>142-154-155-212300-
WESTERN NORTH TEXAS

CITY           SKY/WX    TMP DP  RH WIND       PRES   REMARKS
WICHITA FALLS  PTSUNNY   68  53  58 CALM      29.98F
WF-KICKAPOO    MOSUNNY   68  53  57 NW3       29.99F
VERNON         SUNNY     63  46  55 SW3       30.00S
ABILENE        PTSUNNY   72  54  53 S13       29.97F
ABILENE-DYESS  PTSUNNY   71  53  53 S12       29.96F
MINERAL WELLS  MOSUNNY   72  59  63 SE13      29.99R
STEPHENVILLE   PTSUNNY   75  55  49 S6        30.02S
COMANCHE       MOSUNNY   75  56  52 S9        29.99S
COLEMAN        MOSUNNY   76  56  48 S14       29.98S
BRADY          MOSUNNY   75  54  46 SE12      29.98R
$$

TXZ143>147-156>162-174-175-212300-
CENTRAL TEXAS

CITY           SKY/WX    TMP DP  RH WIND       PRES   REMARKS
WACO           CLOUDY    68  63  84 SE12      30.03S
WACO-TSTC      CLOUDY    70  64  83 SE8       30.04S
WACO-MCGREGOR  CLOUDY    68  61  77 SE15      30.04S
HILLSBORO      PTSUNNY   69  62  78 SE13      30.04R
CORSICANA      LGT RAIN  64  62  93 SE8       30.08R FOG
MEXIA          CLOUDY    65  63  93 SE6G16    30.06S
HEARNE         LGT RAIN  66  65  94 SE5       30.07S
CAMERON        CLOUDY    69  65  87 SE9       30.04F
TEMPLE         PTSUNNY   70  61  73 SE14      30.02S
KILLEEN        PTSUNNY   74  63  68 S17       30.01R
KILLEEN-SKYLRK PTSUNNY   70  61  73 SE13G20   30.01R
GATESVILLE     MOSUNNY   75  63  64 SE10      30.02S
HAMILTON       PTSUNNY   76  55  47 S13G20    30.01R
LAMPASAS       PTSUNNY   76  61  61 S12       29.99S
$$

TXZ095>097-106>112-122>126-135>138-148>153-164>167-212300-
EAST TEXAS

CITY           SKY/WX    TMP DP  RH WIND       PRES   REMARKS
PARIS          CLOUDY    59  57  94 SE13      30.11S
SULPHUR SPRNGS CLOUDY    65  61  87 SE9       30.11S
MOUNT PLEASANT CLOUDY    62  60  95 SE9       30.14R
MINEOLA        CLOUDY    64  61  88 SE8       30.11R
TYLER          CLOUDY    63  59  87 SE12      30.11R
LONGVIEW       LGT RAIN  61  59  93 SE10      30.13R FOG
MARSHALL       CLOUDY    53  51  92 SE3       30.18R
ATHENS         LGT RAIN  63  61  94 S7        30.09R
PALESTINE      CLOUDY    65  63  94 SE7       30.11R
JACKSONVILLE   CLOUDY    63  62  96 SE8       30.13S
HENDERSON      CLOUDY    61  61  99 SE12      30.14R
NACOGDOCHES    CLOUDY    61  57  88 SE9       30.16R
LUFKIN         LGT RAIN  65  60  84 SE7       30.14S
$$

SUPPLEMENTAL OBSERVATIONS (CENTRAL)

CITY           SKY/WX    TMP DP  RH WIND       PRES   REMARKS
$$

SUPPLEMENTAL OBSERVATIONS (WEST)

CITY           SKY/WX    TMP DP  RH WIND       PRES   REMARKS
$$

SUPPLEMENTAL OBSERVATIONS (EAST)

CITY           SKY/WX    TMP DP  RH WIND       PRES   REMARKS
$$

SUPPLEMENTAL OBSERVATIONS ARE A COLLECTION OF AUTOMATED INSTRUMENTS
THAT ARE MAINTAINED BY A VARIETY OF FEDERAL AND STATE AGENCIES.
CERTAIN ELEMENTS...SUCH AS HUMIDITY VALUES AND SUSTAINED WIND
SPEEDS...MAY BE APPROXIMATED.